| time (UTC) | temp C | wind direction | speed KPH | gust KPH | rain 1hr cm | rain 24hr cm | rain mn cm | humidity % | barometer mb |
| 20260502190016 | 16 | 200 | 4.8 | 17.7 | 0.00 | 0.00 | 0.00 | 28 | 1010.0 |
| 20260502184532 | 16 | 227 | 3.2 | 11.3 | 0.00 | 0.00 | 0.00 | 28 | 1010.2 |
| 20260502183029 | 16 | 246 | 4.8 | 12.9 | 0.00 | 0.00 | 0.00 | 28 | 1010.3 |
| 20260502181533 | 16 | 248 | 1.6 | 11.3 | 0.00 | 0.00 | 0.00 | 27 | 1010.6 |
| 20260502163020 | 17 | 257 | 3.2 | 19.3 | 0.00 | 0.00 | 0.00 | 26 | 1011.5 |
| 20260502161521 | 16 | 225 | 4.8 | 17.7 | 0.00 | 0.00 | 0.00 | 26 | 1011.7 |
| 20260502151521 | 13 | 213 | 8.0 | 19.3 | 0.00 | 0.00 | 0.00 | 31 | 1012.1 |
| 20260502123032 | 5 | 172 | 4.8 | 14.5 | 0.00 | 0.00 | 0.00 | 44 | 1014.2 |
| 20260502121512 | 4 | 182 | 1.6 | 9.7 | 0.00 | 0.00 | 0.00 | 47 | 1014.5 |
| 20260502114524 | 2 | 229 | 1.6 | 8.0 | 0.00 | 0.00 | 0.00 | 48 | 1014.8 |
| 20260502113024 | 2 | 244 | 1.6 | 4.8 | 0.00 | 0.00 | 0.00 | 49 | 1015.0 |
| 20260502111528 | 2 | 244 | 1.6 | 4.8 | 0.00 | 0.00 | 0.00 | 48 | 1015.2 |
| 20260502110014 | 2 | 244 | 0.0 | 4.8 | 0.00 | 0.00 | 0.00 | 48 | 1015.3 |
| 20260502104520 | 2 | 244 | 0.0 | 4.8 | 0.00 | 0.00 | 0.00 | 49 | 1015.6 |
| 20260502103028 | 2 | 244 | 0.0 | 1.6 | 0.00 | 0.00 | 0.00 | 48 | 1015.8 |
| 20260502101535 | 2 | 240 | 0.0 | 3.2 | 0.00 | 0.00 | 0.00 | 48 | 1015.9 |
| 20260502091522 | 1 | 312 | 0.0 | 0.0 | 0.00 | 0.00 | 0.00 | 52 | 1016.4 |
| 20260502071527 | 0 | 312 | 0.0 | 0.0 | 0.00 | 0.00 | 0.00 | 56 | 1017.2 |
| 20260502070020 | 0 | 311 | 0.0 | 0.0 | 0.00 | 0.00 | 0.00 | 60 | 1017.3 |
| 20260502064507 | -1 | 312 | 0.0 | 0.0 | 0.00 | 0.00 | 0.00 | 65 | 1017.4 |
| 20260502063022 | -1 | 312 | 0.0 | 0.0 | 0.00 | 0.00 | 0.00 | 65 | 1017.5 |
| 20260502061513 | -1 | 311 | 0.0 | 0.0 | 0.00 | 0.00 | 0.00 | 65 | 1017.5 |
| 20260502060018 | 0 | 312 | 0.0 | 0.0 | 0.00 | 0.00 | 0.00 | 65 | 1017.5 |
| 20260502054523 | 0 | 312 | 0.0 | 0.0 | 0.00 | 0.00 | 0.00 | 66 | 1017.5 |
| 20260502053004 | 0 | 360 | 0.0 | 0.0 | 0.00 | 0.00 | 0.00 | 65 | 1017.6 |
| 20260502051511 | 0 | 311 | 0.0 | 0.0 | 0.00 | 0.00 | 0.00 | 64 | 1017.7 |
| 20260502050014 | 0 | 312 | 0.0 | 0.0 | 0.00 | 0.00 | 0.00 | 64 | 1017.7 |
| 20260502044519 | 0 | 360 | 0.0 | 0.0 | 0.00 | 0.00 | 0.00 | 60 | 1018.0 |
| 20260502043022 | 1 | 360 | 0.0 | 0.0 | 0.00 | 0.00 | 0.00 | 59 | 1018.0 |
| 20260502041507 | 1 | 312 | 0.0 | 0.0 | 0.00 | 0.00 | 0.00 | 60 | 1018.1 |
| 20260502040012 | 1 | 312 | 0.0 | 0.0 | 0.00 | 0.00 | 0.00 | 56 | 1018.0 |
| 20260502034518 | 1 | 311 | 0.0 | 0.0 | 0.00 | 0.00 | 0.00 | 54 | 1018.2 |
| 20260502033025 | 2 | 312 | 0.0 | 0.0 | 0.00 | 0.00 | 0.00 | 55 | 1018.3 |
| 20260502031523 | 2 | 313 | 0.0 | 0.0 | 0.00 | 0.00 | 0.00 | 55 | 1018.2 |
| 20260502030008 | 3 | 313 | 0.0 | 0.0 | 0.00 | 0.00 | 0.00 | 54 | 1018.2 |
| 20260502024513 | 3 | 313 | 0.0 | 0.0 | 0.00 | 0.00 | 0.00 | 51 | 1018.1 |
| 20260502023019 | 4 | 313 | 0.0 | 0.0 | 0.00 | 0.00 | 0.00 | 47 | 1018.2 |
| 20260502021521 | 5 | 313 | 0.0 | 0.0 | 0.00 | 0.00 | 0.00 | 39 | 1018.2 |
| 20260502020026 | 6 | 313 | 0.0 | 3.2 | 0.00 | 0.00 | 0.00 | 37 | 1017.9 |
| 20260502014528 | 7 | 313 | 0.0 | 1.6 | 0.00 | 0.00 | 0.00 | 33 | 1017.8 |
| 20260502013012 | 7 | 313 | 0.0 | 1.6 | 0.00 | 0.00 | 0.00 | 33 | 1017.8 |
| 20260502011518 | 8 | 313 | 0.0 | 3.2 | 0.00 | 0.00 | 0.00 | 32 | 1017.7 |
| 20260502010024 | 8 | 313 | 0.0 | 6.4 | 0.00 | 0.00 | 0.00 | 30 | 1017.8 |
| 20260502004524 | 9 | 311 | 0.0 | 8.0 | 0.00 | 0.00 | 0.00 | 27 | 1017.8 |
| 20260502003026 | 10 | 325 | 1.6 | 8.0 | 0.00 | 0.00 | 0.00 | 28 | 1017.9 |
| 20260502001516 | 10 | 301 | 1.6 | 6.4 | 0.00 | 0.00 | 0.00 | 26 | 1017.9 |
| 20260502000018 | 10 | 265 | 1.6 | 14.5 | 0.00 | 0.00 | 0.00 | 25 | 1017.9 |
| 20260501234522 | 10 | 98 | 1.6 | 12.9 | 0.00 | 0.00 | 0.00 | 25 | 1017.9 |
| 20260501233026 | 10 | 327 | 3.2 | 20.9 | 0.00 | 0.00 | 0.00 | 24 | 1017.9 |
| 20260501231541 | 11 | 343 | 3.2 | 12.9 | 0.00 | 0.00 | 0.00 | 23 | 1017.9 |
| 20260501230013 | 11 | 275 | 0.0 | 16.1 | 0.00 | 0.00 | 0.00 | 24 | 1017.8 |
| 20260501224519 | 11 | 317 | 3.2 | 16.1 | 0.00 | 0.00 | 0.00 | 24 | 1018.0 |
| 20260501223035 | 11 | 178 | 6.4 | 14.5 | 0.00 | 0.00 | 0.00 | 24 | 1018.0 |
| 20260501221528 | 11 | 344 | 6.4 | 16.1 | 0.00 | 0.00 | 0.00 | 23 | 1018.1 |
| 20260501220026 | 11 | 335 | 3.2 | 9.7 | 0.00 | 0.00 | 0.00 | 22 | 1018.1 |
| 20260501214519 | 11 | 302 | 4.8 | 19.3 | 0.00 | 0.00 | 0.00 | 22 | 1018.2 |
| 20260501213023 | 11 | 333 | 4.8 | 14.5 | 0.00 | 0.00 | 0.00 | 24 | 1018.3 |
| 20260501211526 | 11 | 269 | 4.8 | 16.1 | 0.00 | 0.00 | 0.00 | 21 | 1018.4 |
| 20260501210026 | 10 | 248 | 4.8 | 12.9 | 0.00 | 0.00 | 0.00 | 24 | 1018.6 |
| 20260501204529 | 11 | 294 | 1.6 | 17.7 | 0.00 | 0.00 | 0.00 | 24 | 1018.8 |
| 20260501203019 | 11 | 271 | 9.7 | 16.1 | 0.00 | 0.00 | 0.00 | 22 | 1019.0 |
| 20260501201525 | 11 | 263 | 3.2 | 14.5 | 0.00 | 0.00 | 0.00 | 22 | 1018.9 |
| 20260501200006 | 10 | 260 | 9.7 | 20.9 | 0.00 | 0.00 | 0.00 | 23 | 1018.9 |
| 20260501194510 | 10 | 215 | 4.8 | 17.7 | 0.00 | 0.00 | 0.00 | 24 | 1019.1 |
| 20260501193018 | 10 | 309 | 4.8 | 17.7 | 0.00 | 0.00 | 0.00 | 24 | 1019.1 |
| 20260501191521 | 10 | 38 | 4.8 | 19.3 | 0.00 | 0.00 | 0.00 | 25 | 1019.1 |